When you browse on this site, cookies collect data to enhance your experience and personalize the content and advertising you see.
Visit our Privacy Policy to learn more. By continuing to use the site, you agree to this use of cookies and data.
EN

Hourly Weather Gogolin

Today, 26 September, Saturday

Time Temperature Precipitation Wind Pressure Humidity
00:00 +15°C° 0 mm 2 mps 737 mmHg 91%
01:00 +15°C° 0 mm 2 mps 737 mmHg 91%
02:00 +15°C° 0 mm 2 mps 736 mmHg 92%
03:00 +14°C° 0 mm 3 mps 736 mmHg 93%
04:00 +14°C° 0 mm 3 mps 736 mmHg 95%
05:00 +16°C° 1.2 mm 3 mps 735 mmHg 95%
06:00 +16°C° 1.2 mm 3 mps 735 mmHg 95%
07:00 +15°C° 0 mm 4 mps 735 mmHg 93%
08:00 +17°C° 0.6 mm 4 mps 735 mmHg 91%
09:00 +17°C° 0.6 mm 4 mps 734 mmHg 90%
10:00 +16°C° 0.6 mm 5 mps 734 mmHg 88%
11:00 +17°C° 0 mm 6 mps 734 mmHg 81%
12:00 +20°C° 0 mm 6 mps 734 mmHg 75%
13:00 +21°C° 0 mm 7 mps 733 mmHg 68%
14:00 +20°C° 0.1 mm 7 mps 734 mmHg 72%
15:00 +20°C° 0.1 mm 6 mps 734 mmHg 76%
16:00 +19°C° 0.1 mm 6 mps 734 mmHg 79%
17:00 +17°C° 0 mm 5 mps 735 mmHg 81%
18:00 +17°C° 0 mm 4 mps 736 mmHg 83%
19:00 +16°C° 0 mm 3 mps 736 mmHg 85%
20:00 +16°C° 0 mm 3 mps 737 mmHg 85%
21:00 +15°C° 0 mm 2 mps 738 mmHg 85%
22:00 +15°C° 0 mm 2 mps 738 mmHg 86%
23:00 +14°C° 0.4 mm 2 mps 739 mmHg 87%

Tomorrow, 27 September, Sunday

Time Temperature Precipitation Wind Pressure Humidity
00:00 +12°C° 0.4 mm 3 mps 739 mmHg 88%
01:00 +12°C° 0.4 mm 3 mps 739 mmHg 89%
02:00 +11°C° 1.2 mm 4 mps 739 mmHg 90%
03:00 +11°C° 1.2 mm 4 mps 739 mmHg 91%
04:00 +11°C° 1.2 mm 4 mps 739 mmHg 92%
05:00 +11°C° 0.7 mm 4 mps 739 mmHg 92%
06:00 +12°C° 0.7 mm 5 mps 739 mmHg 92%
07:00 +12°C° 0.7 mm 5 mps 739 mmHg 91%
08:00 +13°C° 1.5 mm 4 mps 739 mmHg 91%
09:00 +13°C° 1.5 mm 4 mps 739 mmHg 91%
10:00 +14°C° 1.5 mm 4 mps 739 mmHg 91%
11:00 +15°C° 0.5 mm 4 mps 739 mmHg 88%
12:00 +15°C° 0.5 mm 4 mps 739 mmHg 85%
13:00 +17°C° 0.5 mm 4 mps 739 mmHg 82%
14:00 +15°C° 0.4 mm 4 mps 739 mmHg 84%
15:00 +14°C° 0.4 mm 4 mps 740 mmHg 85%
16:00 +13°C° 0.4 mm 4 mps 740 mmHg 87%
17:00 +12°C° 0.4 mm 4 mps 740 mmHg 88%
18:00 +12°C° 0.4 mm 3 mps 741 mmHg 90%
19:00 +12°C° 0.4 mm 3 mps 741 mmHg 91%
20:00 +11°C° 0 mm 3 mps 742 mmHg 91%
21:00 +11°C° 0 mm 3 mps 742 mmHg 92%
22:00 +11°C° 0 mm 4 mps 743 mmHg 93%
23:00 +10°C° 0.1 mm 4 mps 743 mmHg 92%

Day after tomorrow, 28 September, Monday

Time Temperature Precipitation Wind Pressure Humidity
00:00 +10°C° 0.1 mm 4 mps 743 mmHg 92%
01:00 +10°C° 0.1 mm 4 mps 743 mmHg 92%
02:00 +10°C° 0.1 mm 4 mps 744 mmHg 91%
03:00 +10°C° 0.1 mm 4 mps 744 mmHg 91%
04:00 +10°C° 0.1 mm 4 mps 744 mmHg 91%
05:00 +10°C° 0.1 mm 4 mps 745 mmHg 90%
06:00 +10°C° 0.1 mm 4 mps 745 mmHg 90%
07:00 +10°C° 0.1 mm 4 mps 746 mmHg 89%
08:00 +10°C° 0 mm 5 mps 746 mmHg 83%
09:00 +12°C° 0 mm 5 mps 747 mmHg 77%
10:00 +13°C° 0 mm 5 mps 747 mmHg 71%
11:00 +14°C° 0 mm 5 mps 747 mmHg 66%
12:00 +15°C° 0 mm 5 mps 747 mmHg 61%
13:00 +16°C° 0 mm 5 mps 748 mmHg 56%
14:00 +17°C° 0 mm 4 mps 748 mmHg 56%
15:00 +17°C° 0 mm 3 mps 748 mmHg 56%
16:00 +17°C° 0 mm 3 mps 748 mmHg 56%
17:00 +16°C° 0 mm 3 mps 748 mmHg 59%
18:00 +14°C° 0 mm 3 mps 748 mmHg 61%
19:00 +13°C° 0 mm 3 mps 748 mmHg 64%
20:00 +14°C° 0 mm 2 mps 749 mmHg 66%
21:00 +14°C° 0 mm 2 mps 749 mmHg 67%
22:00 +14°C° 0 mm 1 mps 749 mmHg 69%
23:00 +14°C° 0 mm 1 mps 749 mmHg 69%

29 September, Tuesday

Time Temperature Precipitation Wind Pressure Humidity
00:00 +14°C° 0 mm 2 mps 749 mmHg 70%
01:00 +14°C° 0 mm 2 mps 749 mmHg 70%
02:00 +13°C° 0 mm 2 mps 749 mmHg 71%
03:00 +13°C° 0 mm 2 mps 749 mmHg 73%
04:00 +13°C° 0 mm 2 mps 749 mmHg 74%
05:00 +13°C° 0 mm 1 mps 749 mmHg 76%
06:00 +13°C° 0 mm 1 mps 749 mmHg 77%
07:00 +13°C° 0 mm 1 mps 749 mmHg 78%
08:00 +15°C° 0 mm 1 mps 749 mmHg 73%
09:00 +16°C° 0 mm 1 mps 749 mmHg 69%
10:00 +18°C° 0 mm 1 mps 749 mmHg 64%
11:00 +19°C° 0 mm 1 mps 749 mmHg 61%
12:00 +20°C° 0 mm 1 mps 749 mmHg 58%
13:00 +21°C° 0 mm 1 mps 750 mmHg 55%
14:00 +21°C° 0 mm 1 mps 749 mmHg 55%
15:00 +21°C° 0 mm 1 mps 749 mmHg 56%
16:00 +21°C° 0 mm 1 mps 749 mmHg 56%
17:00 +18°C° 0 mm 2 mps 750 mmHg 62%
18:00 +17°C° 0 mm 2 mps 750 mmHg 68%
19:00 +15°C° 0 mm 2 mps 750 mmHg 74%
20:00 +15°C° 0 mm 2 mps 750 mmHg 78%
21:00 +14°C° 0 mm 2 mps 750 mmHg 81%
22:00 +14°C° 0 mm 2 mps 750 mmHg 85%
23:00 +14°C° 0 mm 2 mps 750 mmHg 86%

30 September, Wednesday

Time Temperature Precipitation Wind Pressure Humidity
00:00 +14°C° 0 mm 2 mps 750 mmHg 87%
01:00 +14°C° 0 mm 2 mps 750 mmHg 88%
02:00 +13°C° 0 mm 2 mps 750 mmHg 88%
03:00 +13°C° 0 mm 2 mps 750 mmHg 88%
04:00 +13°C° 0 mm 2 mps 750 mmHg 88%
05:00 +13°C° 0 mm 2 mps 750 mmHg 87%
06:00 +14°C° 0 mm 2 mps 750 mmHg 86%
07:00 +14°C° 0 mm 2 mps 750 mmHg 84%
08:00 +15°C° 0 mm 2 mps 750 mmHg 79%
09:00 +16°C° 0 mm 2 mps 750 mmHg 74%
10:00 +17°C° 0 mm 2 mps 750 mmHg 70%
11:00 +18°C° 0 mm 3 mps 750 mmHg 65%
12:00 +19°C° 0 mm 3 mps 749 mmHg 61%
13:00 +20°C° 0 mm 3 mps 749 mmHg 57%
14:00 +20°C° 0 mm 3 mps 749 mmHg 59%
15:00 +19°C° 0 mm 3 mps 748 mmHg 61%
16:00 +19°C° 0 mm 3 mps 748 mmHg 64%
17:00 +18°C° 0 mm 3 mps 748 mmHg 68%
18:00 +17°C° 0 mm 3 mps 748 mmHg 73%
19:00 +16°C° 0 mm 3 mps 748 mmHg 78%
20:00 +14°C° 0 mm 3 mps 748 mmHg 82%
21:00 +13°C° 0 mm 3 mps 747 mmHg 85%
22:00 +14°C° 0 mm 2 mps 747 mmHg 89%
23:00 +13°C° 0 mm 2 mps 747 mmHg 91%

1 October, Thursday

Time Temperature Precipitation Wind Pressure Humidity
00:00 +13°C° 0 mm 2 mps 746 mmHg 92%
01:00 +13°C° 0 mm 2 mps 746 mmHg 93%
02:00 +13°C° 0 mm 2 mps 746 mmHg 93%
03:00 +13°C° 0 mm 2 mps 745 mmHg 93%
04:00 +13°C° 0 mm 2 mps 745 mmHg 93%
05:00 +13°C° 0.2 mm 2 mps 745 mmHg 93%
06:00 +14°C° 0.2 mm 2 mps 744 mmHg 93%
07:00 +14°C° 0.2 mm 2 mps 744 mmHg 92%
08:00 +14°C° 0 mm 2 mps 744 mmHg 90%
09:00 +14°C° 0 mm 2 mps 743 mmHg 87%
10:00 +14°C° 0 mm 1 mps 743 mmHg 85%
11:00 +14°C° 0.2 mm 1 mps 742 mmHg 85%
12:00 +14°C° 0.2 mm 1 mps 742 mmHg 85%
13:00 +14°C° 0.2 mm 1 mps 742 mmHg 85%
14:00 +14°C° 1.1 mm 1 mps 741 mmHg 88%
15:00 +13°C° 1.1 mm 1 mps 741 mmHg 91%
16:00 +13°C° 1.1 mm 1 mps 741 mmHg 94%
17:00 +13°C° 1.3 mm 1 mps 740 mmHg 95%
18:00 +13°C° 1.3 mm 1 mps 740 mmHg 95%
19:00 +13°C° 1.3 mm 1 mps 740 mmHg 96%
20:00 +13°C° 0.8 mm 2 mps 740 mmHg 96%
21:00 +13°C° 0.8 mm 2 mps 740 mmHg 96%
22:00 +13°C° 0.8 mm 2 mps 740 mmHg 96%
23:00 +13°C° 0.4 mm 2 mps 739 mmHg 96%
Show more